sat.trackr.live / text

‹ back to catalog

STARLINK-35671

NORAD 66392 · 2025-257N

PAYLOAD ACTIVE UNKNOWN

§ Identity

Operator
Country
US
Launch date
2025-11-09
Launch site
AFETR
Launch vehicle
Mass (kg)
RCS (m²)

Purposes: comms

External: N2YO · Heavens-Above · Gunter

§ Orbital elements

Epoch: 2026-09-20T14:24:31.953312Z

Period
93.85 min
Inclination
53.1610°
Eccentricity
0.0001008
Mean motion
15.34397824 rev/d
Perigee alt
462.0 km
Apogee alt
463.4 km
Semi-major
6,840.8 km
B*
7.5461e-4
RAAN
28.9601°
Arg perigee
70.9339°
Mean anomaly
289.1773°
Rev number
4,961

§ Raw data

STARLINK-356711 66392U 25257N   26263.60036983  .00025203  00000+0  75461-3 0  99982 66392  53.1610  28.9601 0001008  70.9339 289.1773 15.34397824 49613

JSON: /api/v1/satellites/66392 · /tle

For live sub-satellite position, see the globe view (requires WebGL).

§ Visibility from observer

Set your observer location to see the next 7 days of passes ≥ 10°. The values pass through the URL so the page stays shareable.

No JS? Fill the form by hand. The geolocation button needs JavaScript.